Stranger Things Season 1 NF WEBRip 480p 720p 1080p & HEVC

Stranger Things (2016–)

51 min|Drama, Fantasy, Horror|15 Jul 2016
8.9Rating: 8.9 / 10 from 494,743 usersMetascore: N/A
When a young boy disappears, his mother, a police chief, and his friends, must confront terrifying forces in order to get him back.

Size/File ...: .mkv
Source ......: 2160p.NF.WEBRip.x264-NTb
Video .......: AVC | 1280x640 @CRF 22.2
Audio .......: 2CH AAC
Subtitles ...: English softcoded
Chapters ....: -
Runtime .....: 55mn
Note ........: All are Direct Link from HTTP High Speed Server.

 

Stranger Things is an American science fiction-horror web television series Airing on NetFlix. The plot follows the disappearance of a young boy, and a telekinetic girl who helps her friends in their search, while the boy’s older brother, his mother, and the town police chief start their own investigations.

Stranger Things Season 1 NetFlix WEBRip 480p 720p 1080p & HEVC x265

Season 1 480p Links

Stranger.Things.S01E01.480p.WEB-DL-LavinMovie.mkv 160.7 MiB 2017-Oct-20 20:16
Stranger.Things.S01E02.480p.WEB-DL-LavinMovie.mkv 185.3 MiB 2017-Oct-20 20:16
Stranger.Things.S01E03.480p.WEB-DL-LavinMovie.mkv 185.7 MiB 2017-Oct-20 20:16
Stranger.Things.S01E04.480p.WEB-DL-LavinMovie.mkv 179.9 MiB 2017-Oct-20 20:16
Stranger.Things.S01E05.480p.WEB-DL-LavinMovie.mkv 216.6 MiB 2017-Oct-20 20:16
Stranger.Things.S01E06.480p.WEB-DL-LavinMovie.mkv 230.0 MiB 2017-Oct-20 20:16
Stranger.Things.S01E07.480p.WEB-DL-LavinMovie.mkv 178.8 MiB 2017-Oct-20 20:16
Stranger.Things.S01E08.480p.WEB-DL-LavinMovie.mkv 208.7 MiB 2017-Oct-20 20:16

 

Season 1 720p Links

Stranger.Things.S01E01.720p.BluRay.MkvCage.Lavi..> 425.3 MiB 2017-Oct-20 20:16
Stranger.Things.S01E02.720p.BluRay.MkvCage.Lavi..> 491.5 MiB 2017-Oct-20 20:17
Stranger.Things.S01E03.720p.BluRay.MkvCage.Lavi..> 460.3 MiB 2017-Oct-20 20:17
Stranger.Things.S01E04.720p.BluRay.MkvCage.Lavi..> 450.8 MiB 2017-Oct-20 20:17
Stranger.Things.S01E05.720p.BluRay.MkvCage.Lavi..> 470.8 MiB 2017-Dec-02 12:21
Stranger.Things.S01E06.720p.BluRay.MkvCage.Lavi..> 420.5 MiB 2017-Oct-20 20:17
Stranger.Things.S01E07.720p.BluRay.MkvCage.Lavi..> 371.9 MiB 2017-Oct-20 20:17
Stranger.Things.S01E08.720p.BluRay.MkvCage.Lavi..> 492.0 MiB 2017-Oct-20 20:17

 

Season 1 720pHEVC Links

Stranger.Things.S01E01.720p.WEB-DL.2CH.x265.HEV..> 248.0 MiB 2018-Jan-06 19:48
Stranger.Things.S01E02.720p.WEB-DL.2CH.x265.HEV..> 248.6 MiB 2018-Jan-06 19:48
Stranger.Things.S01E03.720p.WEB-DL.2CH.x265.HEV..> 262.5 MiB 2018-Jan-06 19:48
Stranger.Things.S01E04.720p.WEB-DL.2CH.x265.HEV..> 245.0 MiB 2018-Jan-06 19:48
Stranger.Things.S01E05.720p.WEB-DL.2CH.x265.HEV..> 280.7 MiB 2018-Jan-06 19:48
Stranger.Things.S01E06.720p.WEB-DL.2CH.x265.HEV..> 277.3 MiB 2018-Jan-06 19:48
Stranger.Things.S01E07.720p.WEB-DL.2CH.x265.HEV..> 238.4 MiB 2018-Jan-06 19:49
Stranger.Things.S01E08.720p.WEB-DL.2CH.x265.HEV..> 230.6 MiB 2018-Jan-06 19:49

 

Season 1 1080p Full HD Links

Stranger.Things.S01E01.1080p.BluRay.Full.HD.SHO..> 3.3 GiB 2018-Feb-03 17:40
Stranger.Things.S01E02.1080p.BluRay.Full.HD.SHO..> 4.4 GiB 2018-Feb-03 17:40
Stranger.Things.S01E03.1080p.BluRay.Full.HD.SHO..> 3.3 GiB 2018-Feb-03 17:40
Stranger.Things.S01E04.1080p.BluRay.Full.HD.SHO..> 3.3 GiB 2018-Feb-03 17:40
Stranger.Things.S01E05.1080p.BluRay.Full.HD.SHO..> 3.3 GiB 2018-Feb-03 17:40
Stranger.Things.S01E06.1080p.BluRay.Full.HD.SHO..> 3.3 GiB 2018-Feb-03 17:40
Stranger.Things.S01E07.1080p.BluRay.Full.HD.SHO..> 2.6 GiB 2018-Feb-03 17:39
Stranger.Things.S01E08.1080p.BluRay.Full.HD.SHO..> 3.3 GiB 2018-Feb-03 17:40

 

Season 1 1080pHEVC Links

Stranger.Things.S01E01.1080p.10bit.WEB-DL.6CH.x..> 928.9 MiB 2018-Feb-01 11:04
Stranger.Things.S01E02.1080p.10bit.WEB-DL.6CH.x..> 729.7 MiB 2018-Feb-01 11:53
Stranger.Things.S01E03.1080p.10bit.WEB-DL.6CH.x..> 773.3 MiB 2018-Feb-01 11:53
Stranger.Things.S01E04.1080p.10bit.WEB-DL.6CH.x..> 730.0 MiB 2018-Feb-01 11:53
Stranger.Things.S01E05.1080p.10bit.WEB-DL.6CH.x..> 833.2 MiB 2018-Feb-01 11:51
Stranger.Things.S01E06.1080p.10bit.WEB-DL.6CH.x..> 831.6 MiB 2018-Feb-01 11:52
Stranger.Things.S01E07.1080p.10bit.WEB-DL.6CH.x..> 692.8 MiB 2018-Feb-01 11:50
Stranger.Things.S01E08.1080p.10bit.WEB-DL.6CH.x..> 731.4 MiB 2018-Feb-01 11:53

COMMENTS

WORDPRESS: 0